DW2465 Weather Reports


time (UTC)temp
C
wind
direction
speed
KPH
gust
KPH
rain 1hr
cm
rain 24hr
cm
rain mn
cm
humidity
%
barometer
mb
20260905201508 26 78 0.0 0.0 0.00 0.00 0.00 75 1013.7
20260905200005 25 43 0.0 0.0 0.00 0.00 0.00 78 1014.0
20260905194533 25 58 0.0 0.0 0.00 0.00 0.00 78 1014.3
20260905193034 25 59 0.0 0.0 0.00 0.00 0.00 80 1014.5
20260905191535 25 59 0.0 0.0 0.00 0.00 0.00 80 1014.5
20260905190027 25 56 0.0 0.0 0.00 0.00 0.00 79 1014.9
20260905184524 24 45 0.0 0.0 0.00 0.00 0.00 82 1015.1
20260905183019 23 344 0.0 0.0 0.00 0.00 0.00 84 1015.1
20260905181519 22 88 0.0 0.0 0.00 0.00 0.00 88 1015.4
20260905180008 22 105 0.0 0.0 0.00 0.00 0.00 90 1015.5
20260905174517 21 128 0.0 0.0 0.00 0.00 0.00 92 1015.5
20260905173002 21 128 0.0 0.0 0.00 0.00 0.00 93 1015.9
20260905171537 20 132 0.0 0.0 0.00 0.00 0.00 94 1015.9
20260905170029 20 110 0.0 0.0 0.00 0.00 0.00 95 1015.9
20260905164525 20 76 0.0 0.0 0.00 0.00 0.00 95 1016.0
20260905163030 20 67 0.0 0.0 0.00 0.00 0.00 95 1016.0
20260905161522 20 111 0.0 0.0 0.00 0.00 0.00 96 1016.1
20260905160020 19 32 0.0 0.0 0.00 0.00 0.00 96 1016.0
20260905154517 19 44 0.0 0.0 0.00 0.00 0.00 96 1015.8
20260905153016 18 34 0.0 0.0 0.00 0.00 0.00 96 1015.9
20260905151515 18 34 0.0 0.0 0.00 0.00 0.00 96 1015.9
20260905150014 18 34 0.0 0.0 0.00 0.00 0.00 96 1015.8
20260905144542 18 34 0.0 0.0 0.00 0.00 0.00 96 1015.4
20260905143043 18 42 0.0 0.0 0.00 0.00 0.00 96 1015.1
20260905141540 18 26 0.0 0.0 0.00 0.00 0.00 96 1015.1
20260905140038 18 15 0.0 0.0 0.00 0.00 0.00 96 1015.2
20260905134538 18 27 0.0 0.0 0.00 0.00 0.00 96 1015.2
20260905133037 18 40 0.0 0.0 0.00 0.00 0.00 96 1015.1
20260905131538 18 314 0.0 0.0 0.00 0.00 0.00 96 1015.3
20260905130032 18 37 0.0 0.0 0.00 0.00 0.00 96 1015.0
20260905124528 18 36 0.0 0.0 0.00 0.00 0.00 96 1014.4
20260905123035 18 80 0.0 0.0 0.00 0.00 0.00 96 1013.9
20260905121517 18 90 0.0 0.0 0.00 0.00 0.00 96 1013.9
20260905120022 18 62 0.0 0.0 0.00 0.00 0.00 96 1014.0
20260905114519 18 28 0.0 0.0 0.00 0.00 0.00 96 1014.1
20260905113015 18 55 0.0 0.0 0.00 0.00 0.00 96 1013.9
20260905111522 18 64 0.0 0.0 0.00 0.00 0.00 96 1013.8
20260905110019 18 71 0.0 0.0 0.00 0.00 0.00 95 1013.6
20260905104521 18 31 0.0 0.0 0.00 0.00 0.00 95 1013.7
20260905103021 17 18 0.0 0.0 0.00 0.00 0.00 95 1013.6
20260905101519 18 58 0.0 0.0 0.00 0.00 0.00 95 1013.5
20260905100021 18 24 0.0 0.0 0.00 0.00 0.00 95 1013.3
20260905094525 18 57 0.0 0.0 0.00 0.00 0.00 95 1013.0
20260905093017 18 350 0.0 0.0 0.00 0.00 0.00 95 1012.5
20260905091552 18 360 0.0 0.0 0.00 0.00 0.00 95 1012.6
20260905090046 18 21 0.0 0.0 0.00 0.00 0.00 95 1013.0
20260905084551 18 340 0.0 0.0 0.00 0.00 0.00 94 1013.4
20260905083036 18 9 0.0 0.0 0.00 0.00 0.00 95 1013.3
20260905081539 18 87 0.0 0.0 0.00 0.00 0.00 94 1013.1
20260905080035 18 46 0.0 0.0 0.00 0.00 0.00 94 1013.3
20260905074534 18 46 0.0 0.0 0.00 0.00 0.00 94 1013.3
20260905073003 18 41 0.0 0.0 0.00 0.00 0.00 94 1013.5
20260905071504 18 51 0.0 0.0 0.00 0.00 0.00 94 1013.4
20260905070100 18 31 0.0 0.0 0.00 0.00 0.00 94 1013.5
20260905064600 17 19 0.0 0.0 0.00 0.00 0.00 93 1013.6
20260905063100 17 14 0.0 0.0 0.00 0.00 0.00 93 1013.3
20260905061605 18 26 0.0 0.0 0.00 0.00 0.00 92 1013.1
20260905060104 18 11 0.0 0.0 0.00 0.00 0.00 91 1013.4
20260905054600 18 24 0.0 0.0 0.00 0.00 0.00 90 1013.3
20260905053048 19 25 0.0 0.0 0.00 0.00 0.00 90 1013.3
20260905051603 19 21 0.0 0.0 0.00 0.00 0.00 89 1013.0
20260905050041 19 20 0.0 0.0 0.00 0.00 0.00 88 1012.8
20260905044543 20 26 0.0 0.0 0.00 0.00 0.00 88 1012.6
20260905043040 20 360 0.0 0.0 0.00 0.00 0.00 87 1012.7
20260905041535 20 41 0.0 0.0 0.00 0.00 0.00 85 1012.8
20260905040031 21 28 0.0 0.0 0.00 0.00 0.00 85 1012.9
20260905034529 21 18 0.0 0.0 0.00 0.00 0.00 84 1012.6
20260905033025 21 23 0.0 0.0 0.00 0.00 0.00 83 1012.6
20260905031536 22 68 0.0 0.0 0.00 0.00 0.00 81 1012.4
20260905024603 22 46 0.0 0.0 0.00 0.00 0.00 80 1012.3
20260905023051 23 18 0.0 0.0 0.00 0.00 0.00 79 1012.0
20260905021546 23 27 0.0 0.0 0.00 0.00 0.00 79 1011.9
20260905020044 23 40 0.0 0.0 0.00 0.00 0.00 78 1011.7
20260905014543 24 30 0.0 0.0 0.00 0.00 0.00 78 1011.5
20260905013052 25 24 0.0 0.0 0.00 0.00 0.00 76 1011.6
20260905011536 25 14 0.0 0.0 0.00 0.00 0.00 75 1011.4
20260905010035 25 355 0.0 0.0 0.00 0.00 0.00 73 1011.3
20260905004534 26 355 0.0 0.0 0.00 0.00 0.00 72 1011.2
20260905003030 27 29 0.0 0.0 0.00 0.00 0.00 71 1011.1
20260905001529 27 29 0.0 0.0 0.00 0.00 0.00 69 1011.0
20260905000030 27 29 0.0 0.0 0.00 0.00 0.00 67 1010.8
20260904234529 27 30 0.0 0.0 0.00 0.00 0.00 67 1010.7
20260904233056 28 26 0.0 0.0 0.00 0.00 0.00 66 1010.8
20260904231555 28 360 0.0 0.0 0.00 0.00 0.00 67 1010.7
20260904230105 28 18 0.0 0.0 0.00 0.00 0.00 67 1010.5
20260904224551 28 347 0.0 0.0 0.00 0.00 0.00 68 1010.4
20260904223105 28 19 0.0 0.0 0.00 0.00 0.00 68 1010.2
20260904221553 28 343 0.0 0.0 0.00 0.00 0.00 69 1010.2
20260904220016 27 344 0.0 0.0 0.00 0.00 0.00 70 1010.0
20260904214515 28 5 0.0 0.0 0.00 0.00 0.00 70 1010.0
20260904213010 27 41 0.0 0.0 0.00 0.00 0.00 71 1010.0
20260904211507 27 14 0.0 0.0 0.00 0.00 0.00 72 1009.9
20260904210006 27 360 0.0 0.0 0.00 0.00 0.00 72 1010.1
20260904204503 27 360 0.0 0.0 0.00 0.00 0.00 73 1010.1
20260904203032 26 342 0.0 0.0 0.00 0.00 0.00 74 1010.0